Location: Luz Observatory
(34.5000°N, 117.2833°W)
Time: 03:59:40
(UTC-07:00)

Daily predictions for brighter satellites

Satellite Brightness Start Highest point End
(mag) Time Altitude Azimuth Time Altitude Azimuth Time Altitude Azimuth
H-2A R/B 4.1 04:46:16 27° SSW 04:46:16 27° SSW 04:49:01 10° SSE
Cosmos 1953 Rocket 4.4 04:46:20 47° NE 04:46:20 47° NE 04:49:44 10° NNE
SJ 16-02 3.6 04:44:41 10° SSE 04:48:12 24° E 04:51:42 10° NE
PAYLOAD B 4.4 04:44:55 10° NNE 04:50:25 71° ESE 04:55:12 14° S
Cosmos 1656 Rocket 3.5 04:51:02 79° WNW 04:51:02 79° WNW 04:56:43 10° NNE
OAO 2 Rocket 3.3 04:51:42 77° ENE 04:51:42 77° ENE 04:56:21 10° E
CZ-4B DEB 4.2 04:52:25 10° NNE 04:57:56 79° ESE 05:03:26 10° S
NOSS 3-1 (C) 3.2 04:57:55 51° SSW 04:59:26 88° ESE 05:05:39 10° NNE
USA 229 DEB 3.9 05:00:36 46° WNW 05:00:50 46° NW 05:07:26 10° NNE
USA 229 3.9 05:00:40 46° WNW 05:00:55 46° NW 05:07:31 10° NNE
Cosmos 1356 Rocket 4.2 04:59:31 10° S 05:03:39 53° E 05:07:51 10° NNE
Tiangong 2 3.0 05:05:12 27° NE 05:05:12 27° NE 05:07:21 10° E
NOSS 3-1 (A) 3.5 05:01:34 24° SSW 05:05:02 67° ESE 05:11:11 10° NE
Cosmos 1943 Rocket 3.9 05:11:02 17° NNW 05:11:02 17° NNW 05:12:58 10° N
Nadezhda 1 Rocket 4.3 05:12:06 44° W 05:12:18 44° W 05:18:22 10° N
CZ-4B R/B 3.1 05:07:53 10° NNE 05:13:22 82° WNW 05:18:56 10° SSW
CZ-3 R/B 3.7 05:00:06 30° W 05:14:22 55° SSW 05:22:50 10° SE
USA 267 3.4 05:08:08 10° SSE 05:14:28 53° SW 05:16:50 36° WNW
ADEOS II 3.6 05:12:13 10° N 05:14:20 21° NNW 05:14:20 21° NNW
CZ-4C R/B 2.9 05:10:58 17° NW 05:16:57 72° WSW 05:25:00 10° SSE
Cosmos 44 3.2 05:17:43 54° WSW 05:17:55 55° WSW 05:22:41 10° SSE
Milstar 3 3.2 05:16:48 33° WSW 05:19:24 49° S 05:27:02 10° ESE
Meteor PRIRODA 3.5 05:18:52 10° N 05:22:38 76° W 05:23:48 42° SSW
Okean O Rocket 2.0 05:18:50 10° N 05:22:25 42° NW 05:22:25 42° NW
Shenzhou-11 Module 2.0 05:26:13 76° E 05:26:13 76° E 05:29:04 10° ESE
CZ-2C R/B 4.1 05:23:05 10° SSE 05:27:48 67° ENE 05:32:30 10° N
Cosmos 372 Rocket 4.0 05:22:48 10° SSW 05:27:59 80° ESE 05:33:13 10° NNE
Cosmos 1758 Rocket 4.2 05:32:45 34° WNW 05:32:45 34° WNW 05:36:19 10° NNW
IRS-1C Rocket 4.1 05:30:15 10° N 05:35:24 57° WNW 05:40:32 10° SSW
Okean-O 3.4 05:32:27 10° NNE 05:36:47 53° E 05:41:06 10° S
Cosmos-2242 2.9 05:32:42 10° N 05:37:01 83° W 05:41:19 10° S
Cosmos 1125 Rocket 3.4 05:33:11 10° SSW 05:38:24 73° WNW 05:43:41 10° NNE
Cosmos 44 Rocket 3.9 05:38:36 31° W 05:39:42 35° WSW 05:44:10 10° S
Meteor 1-24 Rocket 3.9 05:38:45 10° S 05:44:48 88° E 05:50:47 10° N
NOAA 6 4.4 05:40:13 10° NNE 05:45:23 68° ESE 05:50:29 10° S
Cosmos 2366 rocket 4.4 05:40:59 10° N 05:47:07 64° E 05:53:12 10° SSE
Cosmos 2154 Rocket 4.5 05:42:35 10° NNW 05:48:18 37° W 05:53:58 10° SSW
COSMO-SKYMED 1 3.6 05:45:45 10° SSE 05:49:54 47° ENE 05:54:05 10° N
MTI 3.8 05:47:23 10° SSE 05:50:37 80° ENE 05:53:52 10° N
Meteor 1-31 Rocket 3.3 05:49:49 10° N 05:53:16 34° WNW 05:56:43 10° SW
Cosmos 2227 Rocket 4.0 05:50:34 10° N 05:55:37 32° ENE 06:00:38 10° SE
SL-8 Rocket 4.0 05:54:33 10° N 06:00:51 71° W 06:07:07 10° S
Feng Yun 1-1 Rocket 4.2 05:57:01 10° N 06:02:39 77° WNW 06:08:24 10° SSW
Cosmos 2221 4.4 06:04:56 10° NNE 06:08:58 34° E 06:12:56 10° SE
Cosmos 1842 Rocket 3.6 06:04:36 10° N 06:08:58 87° E 06:13:17 10° S
Cosmos 1048 Rocket 3.9 06:07:02 10° NNW 06:12:13 71° WSW 06:17:26 10° S
Cosmos 864 Rocket 4.4 06:11:15 10° N 06:17:26 75° W 06:23:32 10° S
NOSS 2-3 (D) 4.4 06:13:19 10° SSW 06:17:47 61° ESE 06:22:46 10° NE
GPS 2-04 Rocket1 3.3 06:16:07 13° W 06:19:13 39° SSW 06:22:35 10° SE
Cosmos 2219 3.4 06:16:13 10° NNW 06:21:41 50° WSW 06:27:04 10° S
EO 1 Del DPAF 3.5 06:18:10 10° S 06:21:50 45° W 06:25:31 10° NNW
Cosmos 1908 3.8 06:18:33 10° N 06:22:21 62° E 06:26:08 10° SSE
CZ-2C R/B 2.9 06:18:33 10° NNE 06:23:32 71° ESE 06:28:36 10° S
Cosmos 2084 Rocket 3.5 06:19:26 10° SSW 06:23:49 89° ESE 06:27:59 10° NNE
Cosmos 2218 Rocket 4.2 06:19:45 10° NNW 06:25:47 53° W 06:31:52 10° SSW
SJ 16-02 2.4 06:23:06 10° WSW 06:26:39 24° WNW 06:30:13 10° NNW
Okean 3 Rocket 4.1 06:23:33 10° S 06:28:00 67° E 06:32:26 10° NNE
Meteor 2-8 Rocket 4.5 06:25:14 10° SSW 06:31:17 62° W 06:37:21 10° N
MINOTAUR R/B 4.2 06:29:29 10° NNW 06:32:07 61° WSW 06:34:42 10° S
Cosmos 2297 Rocket 3.0 06:28:05 10° NNW 06:33:39 56° ENE 06:39:10 10° SE
CZ-4 R/B 4.3 06:31:23 10° NE 06:34:31 23° E 06:37:35 10° SSE
OAO 2 Rocket 3.5 06:31:10 10° W 06:36:07 61° SSW 06:40:58 10° ESE
Meteor 2-1 Rocket 4.4 06:31:25 10° NNW 06:37:12 58° W 06:42:52 10° S
